"FRM_AIS_EDR_2643.DAT           ",2006-02-01T17:44:10.79 ,"1/0086895847.05969",    0,    0,  305440,"AIS","B1","B2","B0","B0","PISd",0,0,0,0,"B1", 0,15,   0, 0,    0,"AIS","N/A    ","OK ","OK ",    001323.821,    -006.619,    0179.586,    0020.335,    0125.054
"FRM_AIS_EDR_2643.DAT           ",2006-02-01T17:44:18.33 ,"1/0086895854.41569",    0,    1,  305440,"AIS","B1","B2","B0","B0","PISd",0,0,0,0,"B1", 0,15,   0, 0,    0,"AIS","N/A    ","OK ","OK ",    001312.954,    -006.924,    0179.574,    0020.336,    0125.061
"FRM_AIS_EDR_2643.DAT           ",2006-02-01T17:44:25.88 ,"1/0086895862.11632",    0,    2,  305440,"AIS","B1","B2","B0","B0","PISd",0,0,0,0,"B1", 0,15,   0, 0,    0,"AIS","N/A    ","OK ","OK ",    001302.113,    -007.231,    0179.561,    0020.337,    0125.068
"FRM_AIS_EDR_2643.DAT           ",2006-02-01T17:44:33.42 ,"1/0086895869.47231",    0,    3,  305440,"AIS","B1","B2","B0","B0","PISd",0,0,0,0,"B1", 0,15,   0, 0,    0,"AIS","N/A    ","OK ","OK ",    001291.298,    -007.539,    0179.549,    0020.339,    0125.073
"FRM_AIS_EDR_2643.DAT           ",2006-02-01T17:44:40.96 ,"1/0086895877.17295",    0,    4,  305440,"AIS","B1","B2","B0","B0","PISd",0,0,0,0,"B1", 0,15,   0, 0,    0,"AIS","N/A    ","OK ","OK ",    001280.509,    -007.848,    0179.537,    0020.340,    0125.077
"FRM_AIS_EDR_2643.DAT           ",2006-02-01T17:44:48.51 ,"1/0086895884.52894",    0,    5,  305440,"AIS","B1","B2","B0","B0","PISd",0,0,0,0,"B1", 0,15,   0, 0,    0,"AIS","N/A    ","OK ","OK ",    001269.748,    -008.159,    0179.525,    0020.341,    0125.080
"FRM_AIS_EDR_2643.DAT           ",2006-02-01T17:44:56.05 ,"1/0086895892.22958",    0,    6,  305440,"AIS","B1","B2","B0","B0","PISd",0,0,0,0,"B1", 0,15,   0, 0,    0,"AIS","N/A    ","OK ","OK ",    001259.014,    -008.471,    0179.513,    0020.343,    0125.081
"FRM_AIS_EDR_2643.DAT           ",2006-02-01T17:45:03.59 ,"1/0086895899.58557",    0,    7,  305440,"AIS","B1","B2","B0","B0","PISd",0,0,0,0,"B1", 0,15,   0, 0,    0,"AIS","N/A    ","OK ","OK ",    001248.308,    -008.784,    0179.502,    0020.344,    0125.081
"FRM_AIS_EDR_2643.DAT           ",2006-02-01T17:45:11.13 ,"1/0086895907.28620",    0,    8,  305440,"AIS","B1","B2","B0","B0","PISd",0,0,0,0,"B1", 0,15,   0, 0,    0,"AIS","N/A    ","OK ","OK ",    001237.630,    -009.099,    0179.490,    0020.345,    0125.081
"FRM_AIS_EDR_2643.DAT           ",2006-02-01T17:45:18.68 ,"1/0086895914.64220",    0,    9,  305440,"AIS","B1","B2","B0","B0","PISd",0,0,0,0,"B1", 0,15,   0, 0,    0,"AIS","N/A    ","OK ","OK ",    001226.981,    -009.416,    0179.479,    0020.346,    0125.078
"FRM_AIS_EDR_2643.DAT           ",2006-02-01T17:45:26.22 ,"1/0086895922.34283",    0,   10,  305440,"AIS","B1","B2","B0","B0","PISd",0,0,0,0,"B1", 0,15,   0, 0,    0,"AIS","N/A    ","OK ","OK ",    001216.362,    -009.734,    0179.467,    0020.348,    0125.075
"FRM_AIS_EDR_2643.DAT           ",2006-02-01T17:45:33.76 ,"1/0086895930.04347",    0,   11,  305440,"AIS","B1","B2","B0","B0","PISd",0,0,0,0,"B1", 0,15,   0, 0,    0,"AIS","N/A    ","OK ","OK ",    001205.773,    -010.053,    0179.456,    0020.349,    0125.070
"FRM_AIS_EDR_2643.DAT           ",2006-02-01T17:45:41.31 ,"1/0086895937.39946",    0,   12,  305440,"AIS","B1","B2","B0","B0","PISd",0,0,0,0,"B1", 0,15,   0, 0,    0,"AIS","N/A    ","OK ","OK ",    001195.213,    -010.374,    0179.445,    0020.350,    0125.064
"FRM_AIS_EDR_2643.DAT           ",2006-02-01T17:45:48.85 ,"1/0086895945.10009",    0,   13,  305440,"AIS","B1","B2","B0","B0","PISd",0,0,0,0,"B1", 0,15,   0, 0,    0,"AIS","N/A    ","OK ","OK ",    001184.685,    -010.696,    0179.434,    0020.351,    0125.057
"FRM_AIS_EDR_2643.DAT           ",2006-02-01T17:45:56.39 ,"1/0086895952.45609",    0,   14,  305440,"AIS","B1","B2","B0","B0","PISd",0,0,0,0,"B1", 0,15,   0, 0,    0,"AIS","N/A    ","OK ","OK ",    001174.188,    -011.020,    0179.423,    0020.353,    0125.048
"FRM_AIS_EDR_2643.DAT           ",2006-02-01T17:46:03.94 ,"1/0086895960.15672",    0,   15,  305440,"AIS","B1","B2","B0","B0","PISd",0,0,0,0,"B1", 0,15,   0, 0,    0,"AIS","N/A    ","OK ","OK ",    001163.723,    -011.346,    0179.412,    0020.354,    0125.038
"FRM_AIS_EDR_2643.DAT           ",2006-02-01T17:46:11.48 ,"1/0086895967.51271",    0,   16,  305440,"AIS","B1","B2","B0","B0","PISd",0,0,0,0,"B1", 0,15,   0, 0,    0,"AIS","N/A    ","OK ","OK ",    001153.290,    -011.673,    0179.402,    0020.356,    0125.027
"FRM_AIS_EDR_2643.DAT           ",2006-02-01T17:46:19.02 ,"1/0086895975.21335",    0,   17,  305440,"AIS","B1","B2","B0","B0","PISd",0,0,0,0,"B1", 0,15,   0, 0,    0,"AIS","N/A    ","OK ","OK ",    001142.889,    -012.001,    0179.391,    0020.357,    0125.014
"FRM_AIS_EDR_2643.DAT           ",2006-02-01T17:46:26.57 ,"1/0086895982.56934",    0,   18,  305440,"AIS","B1","B2","B0","B0","PISd",0,0,0,0,"B1", 0,15,   0, 0,    0,"AIS","N/A    ","OK ","OK ",    001132.522,    -012.331,    0179.381,    0020.358,    0124.999
"FRM_AIS_EDR_2643.DAT           ",2006-02-01T17:46:34.11 ,"1/0086895990.26998",    0,   19,  305440,"AIS","B1","B2","B0","B0","PISd",0,0,0,0,"B1", 0,15,   0, 0,    0,"AIS","N/A    ","OK ","OK ",    001122.189,    -012.662,    0179.371,    0020.359,    0124.984
"FRM_AIS_EDR_2643.DAT           ",2006-02-01T17:46:41.65 ,"1/0086895997.62597",    0,   20,  305440,"AIS","B1","B2","B0","B0","PISd",0,0,0,0,"B1", 0,15,   0, 0,    0,"AIS","N/A    ","OK ","OK ",    001111.890,    -012.995,    0179.361,    0020.361,    0124.967
"FRM_AIS_EDR_2643.DAT           ",2006-02-01T17:46:49.20 ,"1/0086896005.32660",    0,   21,  305440,"AIS","B1","B2","B0","B0","PISd",0,0,0,0,"B1", 0,15,   0, 0,    0,"AIS","N/A    ","OK ","OK ",    001101.626,    -013.329,    0179.351,    0020.362,    0124.948
"FRM_AIS_EDR_2643.DAT           ",2006-02-01T17:46:56.74 ,"1/0086896013.02724",    0,   22,  305440,"AIS","B1","B2","B0","B0","PISd",0,0,0,0,"B1", 0,15,   0, 0,    0,"AIS","N/A    ","OK ","OK ",    001091.397,    -013.665,    0179.341,    0020.364,    0124.928
"FRM_AIS_EDR_2643.DAT           ",2006-02-01T17:47:04.28 ,"1/0086896020.38323",    0,   23,  305440,"AIS","B1","B2","B0","B0","PISd",0,0,0,0,"B1", 0,15,   0, 0,    0,"AIS","N/A    ","OK ","OK ",    001081.204,    -014.003,    0179.332,    0020.365,    0124.906
"FRM_AIS_EDR_2643.DAT           ",2006-02-01T17:47:11.83 ,"1/0086896028.08386",    0,   24,  305440,"AIS","B1","B2","B0","B0","PISd",0,0,0,0,"B1", 0,15,   0, 0,    0,"AIS","N/A    ","OK ","OK ",    001071.047,    -014.342,    0179.322,    0020.366,    0124.883
"FRM_AIS_EDR_2643.DAT           ",2006-02-01T17:47:19.37 ,"1/0086896035.43986",    0,   25,  305440,"AIS","B1","B2","B0","B0","PISd",0,0,0,0,"B1", 0,15,   0, 0,    0,"AIS","N/A    ","OK ","OK ",    001060.927,    -014.683,    0179.313,    0020.368,    0124.858
"FRM_AIS_EDR_2643.DAT           ",2006-02-01T17:47:26.91 ,"1/0086896043.14049",    0,   26,  305440,"AIS","B1","B2","B0","B0","PISd",0,0,0,0,"B1", 0,15,   0, 0,    0,"AIS","N/A    ","OK ","OK ",    001050.845,    -015.025,    0179.304,    0020.369,    0124.832
"FRM_AIS_EDR_2643.DAT           ",2006-02-01T17:47:34.46 ,"1/0086896050.49649",    0,   27,  305440,"AIS","B1","B2","B0","B0","PISd",0,0,0,0,"B1", 0,15,   0, 0,    0,"AIS","N/A    ","OK ","OK ",    001040.800,    -015.368,    0179.295,    0020.371,    0124.804
"FRM_AIS_EDR_2643.DAT           ",2006-02-01T17:47:42.00 ,"1/0086896058.19712",    0,   28,  305440,"AIS","B1","B2","B0","B0","PISd",0,0,0,0,"B1", 0,15,   0, 0,    0,"AIS","N/A    ","OK ","OK ",    001030.794,    -015.714,    0179.287,    0020.372,    0124.775
"FRM_AIS_EDR_2643.DAT           ",2006-02-01T17:47:49.54 ,"1/0086896065.55311",    0,   29,  305440,"AIS","B1","B2","B0","B0","PISd",0,0,0,0,"B1", 0,15,   0, 0,    0,"AIS","N/A    ","OK ","OK ",    001020.827,    -016.061,    0179.278,    0020.374,    0124.744
"FRM_AIS_EDR_2643.DAT           ",2006-02-01T17:47:57.09 ,"1/0086896073.25375",    0,   30,  305440,"AIS","B1","B2","B0","B0","PISd",0,0,0,0,"B1", 0,15,   0, 0,    0,"AIS","N/A    ","OK ","OK ",    001010.900,    -016.409,    0179.270,    0020.375,    0124.711
"FRM_AIS_EDR_2643.DAT           ",2006-02-01T17:48:04.63 ,"1/0086896080.60974",    0,   31,  305440,"AIS","B1","B2","B0","B0","PISd",0,0,0,0,"B1", 0,15,   0, 0,    0,"AIS","N/A    ","OK ","OK ",    001001.012,    -016.759,    0179.262,    0020.377,    0124.677
"FRM_AIS_EDR_2643.DAT           ",2006-02-01T17:48:12.17 ,"1/0086896088.31037",    0,   32,  305440,"AIS","B1","B2","B0","B0","PISd",0,0,0,0,"B1", 0,15,   0, 0,    0,"AIS","N/A    ","OK ","OK ",    000991.166,    -017.111,    0179.254,    0020.378,    0124.641
"FRM_AIS_EDR_2643.DAT           ",2006-02-01T17:48:19.71 ,"1/0086896096.01101",    0,   33,  305440,"AIS","B1","B2","B0","B0","PISd",0,0,0,0,"B1", 0,15,   0, 0,    0,"AIS","N/A    ","OK ","OK ",    000981.360,    -017.464,    0179.246,    0020.380,    0124.603
"FRM_AIS_EDR_2643.DAT           ",2006-02-01T17:48:27.26 ,"1/0086896103.36700",    0,   34,  305440,"AIS","B1","B2","B0","B0","PISd",0,0,0,0,"B1", 0,15,   0, 0,    0,"AIS","N/A    ","OK ","OK ",    000971.597,    -017.818,    0179.238,    0020.381,    0124.564
"FRM_AIS_EDR_2643.DAT           ",2006-02-01T17:48:34.80 ,"1/0086896111.06763",    0,   35,  305440,"AIS","B1","B2","B0","B0","PISd",0,0,0,0,"B1", 0,15,   0, 0,    0,"AIS","N/A    ","OK ","OK ",    000961.875,    -018.175,    0179.231,    0020.383,    0124.523
"FRM_AIS_EDR_2643.DAT           ",2006-02-01T17:48:42.34 ,"1/0086896118.42363",    0,   36,  305440,"AIS","B1","B2","B0","B0","PISd",0,0,0,0,"B1", 0,15,   0, 0,    0,"AIS","N/A    ","OK ","OK ",    000952.197,    -018.533,    0179.223,    0020.384,    0124.480
"FRM_AIS_EDR_2643.DAT           ",2006-02-01T17:48:49.89 ,"1/0086896126.12426",    0,   37,  305440,"AIS","B1","B2","B0","B0","PISd",0,0,0,0,"B1", 0,15,   0, 0,    0,"AIS","N/A    ","OK ","OK ",    000942.562,    -018.892,    0179.216,    0020.386,    0124.436
"FRM_AIS_EDR_2643.DAT           ",2006-02-01T17:48:57.43 ,"1/0086896133.48026",    0,   38,  305440,"AIS","B1","B2","B0","B0","PISd",0,0,0,0,"B1", 0,15,   0, 0,    0,"AIS","N/A    ","OK ","OK ",    000932.972,    -019.253,    0179.210,    0020.387,    0124.389
"FRM_AIS_EDR_2643.DAT           ",2006-02-01T17:49:04.97 ,"1/0086896141.18089",    0,   39,  305440,"AIS","B1","B2","B0","B0","PISd",0,0,0,0,"B1", 0,15,   0, 0,    0,"AIS","N/A    ","OK ","OK ",    000923.426,    -019.616,    0179.203,    0020.389,    0124.341
"FRM_AIS_EDR_2643.DAT           ",2006-02-01T17:49:12.52 ,"1/0086896148.53688",    0,   40,  305440,"AIS","B1","B2","B0","B0","PISd",0,0,0,0,"B1", 0,15,   0, 0,    0,"AIS","N/A    ","OK ","OK ",    000913.925,    -019.981,    0179.197,    0020.391,    0124.291
"FRM_AIS_EDR_2643.DAT           ",2006-02-01T17:49:20.06 ,"1/0086896156.23752",    0,   41,  305440,"AIS","B1","B2","B0","B0","PISd",0,0,0,0,"B1", 0,15,   0, 0,    0,"AIS","N/A    ","OK ","OK ",    000904.470,    -020.347,    0179.191,    0020.392,    0124.240
"FRM_AIS_EDR_2643.DAT           ",2006-02-01T17:49:27.60 ,"1/0086896163.59351",    0,   42,  305440,"AIS","B1","B2","B0","B0","PISd",0,0,0,0,"B1", 0,15,   0, 0,    0,"AIS","N/A    ","OK ","OK ",    000895.062,    -020.714,    0179.185,    0020.394,    0124.186
"FRM_AIS_EDR_2643.DAT           ",2006-02-01T17:49:35.15 ,"1/0086896171.29414",    0,   43,  305440,"AIS","B1","B2","B0","B0","PISd",0,0,0,0,"B1", 0,15,   0, 0,    0,"AIS","N/A    ","OK ","OK ",    000885.701,    -021.083,    0179.179,    0020.396,    0124.131
"FRM_AIS_EDR_2643.DAT           ",2006-02-01T17:49:42.69 ,"1/0086896178.65014",    0,   44,  305440,"AIS","B1","B2","B0","B0","PISd",0,0,0,0,"B1", 0,15,   0, 0,    0,"AIS","N/A    ","OK ","OK ",    000876.387,    -021.454,    0179.174,    0020.397,    0124.074
"FRM_AIS_EDR_2643.DAT           ",2006-02-01T17:49:50.23 ,"1/0086896186.35077",    0,   45,  305440,"AIS","B1","B2","B0","B0","PISd",0,0,0,0,"B1", 0,15,   0, 0,    0,"AIS","N/A    ","OK ","OK ",    000867.121,    -021.827,    0179.168,    0020.399,    0124.015
"FRM_AIS_EDR_2643.DAT           ",2006-02-01T17:49:57.78 ,"1/0086896194.05140",    0,   46,  305440,"AIS","B1","B2","B0","B0","PISd",0,0,0,0,"B1", 0,15,   0, 0,    0,"AIS","N/A    ","OK ","OK ",    000857.905,    -022.201,    0179.163,    0020.401,    0123.954
"FRM_AIS_EDR_2643.DAT           ",2006-02-01T17:50:05.32 ,"1/0086896201.40740",    0,   47,  305440,"AIS","B1","B2","B0","B0","PISd",0,0,0,0,"B1", 0,15,   0, 0,    0,"AIS","N/A    ","OK ","OK ",    000848.738,    -022.577,    0179.159,    0020.402,    0123.891
"FRM_AIS_EDR_2643.DAT           ",2006-02-01T17:50:12.86 ,"1/0086896209.10803",    0,   48,  305440,"AIS","B1","B2","B0","B0","PISd",0,0,0,0,"B1", 0,15,   0, 0,    0,"AIS","N/A    ","OK ","OK ",    000839.621,    -022.954,    0179.154,    0020.404,    0123.826
"FRM_AIS_EDR_2643.DAT           ",2006-02-01T17:50:20.41 ,"1/0086896216.46403",    0,   49,  305440,"AIS","B1","B2","B0","B0","PISd",0,0,0,0,"B1", 0,15,   0, 0,    0,"AIS","N/A    ","OK ","OK ",    000830.554,    -023.333,    0179.150,    0020.406,    0123.759
"FRM_AIS_EDR_2643.DAT           ",2006-02-01T17:50:27.95 ,"1/0086896224.16466",    0,   50,  305440,"AIS","B1","B2","B0","B0","PISd",0,0,0,0,"B1", 0,15,   0, 0,    0,"AIS","N/A    ","OK ","OK ",    000821.539,    -023.714,    0179.146,    0020.408,    0123.691
"FRM_AIS_EDR_2643.DAT           ",2006-02-01T17:50:35.49 ,"1/0086896231.52065",    0,   51,  305440,"AIS","B1","B2","B0","B0","PISd",0,0,0,0,"B1", 0,15,   0, 0,    0,"AIS","N/A    ","OK ","OK ",    000812.576,    -024.096,    0179.142,    0020.409,    0123.620
"FRM_AIS_EDR_2643.DAT           ",2006-02-01T17:50:43.04 ,"1/0086896239.22129",    0,   52,  305440,"AIS","B1","B2","B0","B0","PISd",0,0,0,0,"B1", 0,15,   0, 0,    0,"AIS","N/A    ","OK ","OK ",    000803.665,    -024.480,    0179.139,    0020.411,    0123.548
"FRM_AIS_EDR_2643.DAT           ",2006-02-01T17:50:50.58 ,"1/0086896246.57728",    0,   53,  305440,"AIS","B1","B2","B0","B0","PISd",0,0,0,0,"B1", 0,15,   0, 0,    0,"AIS","N/A    ","OK ","OK ",    000794.808,    -024.865,    0179.136,    0020.413,    0123.473
"FRM_AIS_EDR_2643.DAT           ",2006-02-01T17:50:58.12 ,"1/0086896254.27791",    0,   54,  305440,"AIS","B1","B2","B0","B0","PISd",0,0,0,0,"B1", 0,15,   0, 0,    0,"AIS","N/A    ","OK ","OK ",    000786.004,    -025.253,    0179.133,    0020.415,    0123.396
"FRM_AIS_EDR_2643.DAT           ",2006-02-01T17:51:05.67 ,"1/0086896261.63391",    0,   55,  305440,"AIS","B1","B2","B0","B0","PISd",0,0,0,0,"B1", 0,15,   0, 0,    0,"AIS","N/A    ","OK ","OK ",    000777.255,    -025.641,    0179.130,    0020.417,    0123.318
"FRM_AIS_EDR_2643.DAT           ",2006-02-01T17:51:13.21 ,"1/0086896269.33454",    0,   56,  305440,"AIS","B1","B2","B0","B0","PISd",0,0,0,0,"B1", 0,15,   0, 0,    0,"AIS","N/A    ","OK ","OK ",    000768.561,    -026.032,    0179.128,    0020.419,    0123.237
"FRM_AIS_EDR_2643.DAT           ",2006-02-01T17:51:20.75 ,"1/0086896277.03517",    0,   57,  305440,"AIS","B1","B2","B0","B0","PISd",0,0,0,0,"B1", 0,15,   0, 0,    0,"AIS","N/A    ","OK ","OK ",    000759.922,    -026.424,    0179.126,    0020.421,    0123.154
"FRM_AIS_EDR_2643.DAT           ",2006-02-01T17:51:28.30 ,"1/0086896284.39117",    0,   58,  305440,"AIS","B1","B2","B0","B0","PISd",0,0,0,0,"B1", 0,15,   0, 0,    0,"AIS","N/A    ","OK ","OK ",    000751.340,    -026.818,    0179.125,    0020.423,    0123.070
"FRM_AIS_EDR_2643.DAT           ",2006-02-01T17:51:35.84 ,"1/0086896292.09180",    0,   59,  305440,"AIS","B1","B2","B0","B0","PISd",0,0,0,0,"B1", 0,15,   0, 0,    0,"AIS","N/A    ","OK ","OK ",    000742.815,    -027.213,    0179.124,    0020.425,    0122.983
"FRM_AIS_EDR_2643.DAT           ",2006-02-01T17:51:43.38 ,"1/0086896299.44779",    0,   60,  305440,"AIS","B1","B2","B0","B0","PISd",0,0,0,0,"B1", 0,15,   0, 0,    0,"AIS","N/A    ","OK ","OK ",    000734.347,    -027.610,    0179.123,    0020.427,    0122.894
"FRM_AIS_EDR_2643.DAT           ",2006-02-01T17:51:50.92 ,"1/0086896307.14843",    0,   61,  305440,"AIS","B1","B2","B0","B0","PISd",0,0,0,0,"B1", 0,15,   0, 0,    0,"AIS","N/A    ","OK ","OK ",    000725.938,    -028.009,    0179.122,    0020.429,    0122.803
"FRM_AIS_EDR_2643.DAT           ",2006-02-01T17:51:58.47 ,"1/0086896314.50442",    0,   62,  305440,"AIS","B1","B2","B0","B0","PISd",0,0,0,0,"B1", 0,15,   0, 0,    0,"AIS","N/A    ","OK ","OK ",    000717.587,    -028.409,    0179.122,    0020.431,    0122.710
"FRM_AIS_EDR_2643.DAT           ",2006-02-01T17:52:06.01 ,"1/0086896322.20506",    0,   63,  305440,"AIS","B1","B2","B0","B0","PISd",0,0,0,0,"B1", 0,15,   0, 0,    0,"AIS","N/A    ","OK ","OK ",    000709.296,    -028.811,    0179.122,    0020.433,    0122.615
"FRM_AIS_EDR_2643.DAT           ",2006-02-01T17:52:13.55 ,"1/0086896329.56105",    0,   64,  305440,"AIS","B1","B2","B0","B0","PISd",0,0,0,0,"B1", 0,15,   0, 0,    0,"AIS","N/A    ","OK ","OK ",    000701.065,    -029.215,    0179.122,    0020.435,    0122.518
"FRM_AIS_EDR_2643.DAT           ",2006-02-01T17:52:21.10 ,"1/0086896337.26168",    0,   65,  305440,"AIS","B1","B2","B0","B0","PISd",0,0,0,0,"B1", 0,15,   0, 0,    0,"AIS","N/A    ","OK ","OK ",    000692.895,    -029.620,    0179.123,    0020.437,    0122.418
"FRM_AIS_EDR_2643.DAT           ",2006-02-01T17:52:28.64 ,"1/0086896344.61768",    0,   66,  305440,"AIS","B1","B2","B0","B0","PISd",0,0,0,0,"B1", 0,15,   0, 0,    0,"AIS","N/A    ","OK ","OK ",    000684.786,    -030.027,    0179.125,    0020.439,    0122.317
"FRM_AIS_EDR_2643.DAT           ",2006-02-01T17:52:36.18 ,"1/0086896352.31831",    0,   67,  305440,"AIS","B1","B2","B0","B0","PISd",0,0,0,0,"B1", 0,15,   0, 0,    0,"AIS","N/A    ","OK ","OK ",    000676.740,    -030.436,    0179.126,    0020.441,    0122.213
"FRM_AIS_EDR_2643.DAT           ",2006-02-01T17:52:43.73 ,"1/0086896360.01894",    0,   68,  305440,"AIS","B1","B2","B0","B0","PISd",0,0,0,0,"B1", 0,15,   0, 0,    0,"AIS","N/A    ","OK ","OK ",    000668.756,    -030.846,    0179.128,    0020.443,    0122.107
"FRM_AIS_EDR_2643.DAT           ",2006-02-01T17:52:51.27 ,"1/0086896367.37494",    0,   69,  305440,"AIS","B1","B2","B0","B0","PISd",0,0,0,0,"B1", 0,15,   0, 0,    0,"AIS","N/A    ","OK ","OK ",    000660.836,    -031.257,    0179.131,    0020.446,    0121.999
"FRM_AIS_EDR_2643.DAT           ",2006-02-01T17:52:58.81 ,"1/0086896375.07557",    0,   70,  305440,"AIS","B1","B2","B0","B0","PISd",0,0,0,0,"B1", 0,15,   0, 0,    0,"AIS","N/A    ","OK ","OK ",    000652.979,    -031.671,    0179.134,    0020.448,    0121.889
"FRM_AIS_EDR_2643.DAT           ",2006-02-01T17:53:06.36 ,"1/0086896382.43156",    0,   71,  305440,"AIS","B1","B2","B0","B0","PISd",0,0,0,0,"B1", 0,15,   0, 0,    0,"AIS","N/A    ","OK ","OK ",    000645.188,    -032.086,    0179.137,    0020.450,    0121.777
"FRM_AIS_EDR_2643.DAT           ",2006-02-01T17:53:13.90 ,"1/0086896390.13220",    0,   72,  305440,"AIS","B1","B2","B0","B0","PISd",0,0,0,0,"B1", 0,15,   0, 0,    0,"AIS","N/A    ","OK ","OK ",    000637.461,    -032.502,    0179.141,    0020.452,    0121.662
"FRM_AIS_EDR_2643.DAT           ",2006-02-01T17:53:21.44 ,"1/0086896397.48819",    0,   73,  305440,"AIS","B1","B2","B0","B0","PISd",0,0,0,0,"B1", 0,15,   0, 0,    0,"AIS","N/A    ","OK ","OK ",    000629.801,    -032.921,    0179.145,    0020.455,    0121.546
"FRM_AIS_EDR_2643.DAT           ",2006-02-01T17:53:28.99 ,"1/0086896405.18882",    0,   74,  305440,"AIS","B1","B2","B0","B0","PISd",0,0,0,0,"B1", 0,15,   0, 0,    0,"AIS","N/A    ","OK ","OK ",    000622.208,    -033.340,    0179.150,    0020.457,    0121.427
"FRM_AIS_EDR_2643.DAT           ",2006-02-01T17:53:36.53 ,"1/0086896412.54482",    0,   75,  305440,"AIS","B1","B2","B0","B0","PISd",0,0,0,0,"B1", 0,15,   0, 0,    0,"AIS","N/A    ","OK ","OK ",    000614.681,    -033.762,    0179.155,    0020.459,    0121.306
"FRM_AIS_EDR_2643.DAT           ",2006-02-01T17:53:44.07 ,"1/0086896420.24545",    0,   76,  305440,"AIS","B1","B2","B0","B0","PISd",0,0,0,0,"B1", 0,15,   0, 0,    0,"AIS","N/A    ","OK ","OK ",    000607.223,    -034.185,    0179.160,    0020.462,    0121.182
"FRM_AIS_EDR_2643.DAT           ",2006-02-01T17:53:51.62 ,"1/0086896427.60144",    0,   77,  305440,"AIS","B1","B2","B0","B0","PISd",0,0,0,0,"B1", 0,15,   0, 0,    0,"AIS","N/A    ","OK ","OK ",    000599.833,    -034.609,    0179.167,    0020.464,    0121.057
"FRM_AIS_EDR_2643.DAT           ",2006-02-01T17:53:59.16 ,"1/0086896435.30208",    0,   78,  305440,"AIS","B1","B2","B0","B0","PISd",0,0,0,0,"B1", 0,15,   0, 0,    0,"AIS","N/A    ","OK ","OK ",    000592.513,    -035.036,    0179.173,    0020.467,    0120.929
"FRM_AIS_EDR_2643.DAT           ",2006-02-01T17:54:06.70 ,"1/0086896443.00271",    0,   79,  305440,"AIS","B1","B2","B0","B0","PISd",0,0,0,0,"B1", 0,15,   0, 0,    0,"AIS","N/A    ","OK ","OK ",    000585.262,    -035.463,    0179.180,    0020.469,    0120.799
"FRM_AIS_EDR_2643.DAT           ",2006-02-01T17:54:14.25 ,"1/0086896450.35870",    0,   80,  305440,"AIS","B1","B2","B0","B0","PISd",0,0,0,0,"B1", 0,15,   0, 0,    0,"AIS","N/A    ","OK ","OK ",    000578.082,    -035.893,    0179.188,    0020.472,    0120.667
"FRM_AIS_EDR_2643.DAT           ",2006-02-01T17:54:21.79 ,"1/0086896458.05934",    0,   81,  305440,"AIS","B1","B2","B0","B0","PISd",0,0,0,0,"B1", 0,15,   0, 0,    0,"AIS","N/A    ","OK ","OK ",    000570.973,    -036.324,    0179.197,    0020.474,    0120.533
"FRM_AIS_EDR_2643.DAT           ",2006-02-01T17:54:29.33 ,"1/0086896465.41533",    0,   82,  305440,"AIS","B1","B2","B0","B0","PISd",0,0,0,0,"B1", 0,15,   0, 0,    0,"AIS","N/A    ","OK ","OK ",    000563.936,    -036.756,    0179.205,    0020.477,    0120.396
"FRM_AIS_EDR_2643.DAT           ",2006-02-01T17:54:36.88 ,"1/0086896473.11597",    0,   83,  305440,"AIS","B1","B2","B0","B0","PISd",0,0,0,0,"B1", 0,15,   0, 0,    0,"AIS","N/A    ","OK ","OK ",    000556.972,    -037.190,    0179.215,    0020.480,    0120.257
"FRM_AIS_EDR_2643.DAT           ",2006-02-01T17:54:44.42 ,"1/0086896480.47196",    0,   84,  305440,"AIS","B1","B2","B0","B0","PISd",0,0,0,0,"B1", 0,15,   0, 0,    0,"AIS","N/A    ","OK ","OK ",    000550.080,    -037.626,    0179.225,    0020.483,    0120.116
"FRM_AIS_EDR_2643.DAT           ",2006-02-01T17:54:51.96 ,"1/0086896488.17259",    0,   85,  305440,"AIS","B1","B2","B0","B0","PISd",0,0,0,0,"B1", 0,15,   0, 0,    0,"AIS","N/A    ","OK ","OK ",    000543.263,    -038.063,    0179.236,    0020.485,    0119.973
"FRM_AIS_EDR_2643.DAT           ",2006-02-01T17:54:59.50 ,"1/0086896495.52859",    0,   86,  305440,"AIS","B1","B2","B0","B0","PISd",0,0,0,0,"B1", 0,15,   0, 0,    0,"AIS","N/A    ","OK ","OK ",    000536.519,    -038.501,    0179.247,    0020.488,    0119.827
"FRM_AIS_EDR_2643.DAT           ",2006-02-01T17:55:07.05 ,"1/0086896503.22922",    0,   87,  305440,"AIS","B1","B2","B0","B0","PISd",0,0,0,0,"B1", 0,15,   0, 0,    0,"AIS","N/A    ","OK ","OK ",    000529.851,    -038.941,    0179.259,    0020.491,    0119.680
"FRM_AIS_EDR_2643.DAT           ",2006-02-01T17:55:14.59 ,"1/0086896510.58521",    0,   88,  305440,"AIS","B1","B2","B0","B0","PISd",0,0,0,0,"B1", 0,15,   0, 0,    0,"AIS","N/A    ","OK ","OK ",    000523.259,    -039.383,    0179.272,    0020.494,    0119.530
"FRM_AIS_EDR_2643.DAT           ",2006-02-01T17:55:22.13 ,"1/0086896518.28585",    0,   89,  305440,"AIS","B1","B2","B0","B0","PISd",0,0,0,0,"B1", 0,15,   0, 0,    0,"AIS","N/A    ","OK ","OK ",    000516.742,    -039.826,    0179.285,    0020.497,    0119.378
"FRM_AIS_EDR_2643.DAT           ",2006-02-01T17:55:29.68 ,"1/0086896525.64184",    0,   90,  305440,"AIS","B1","B2","B0","B0","PISd",0,0,0,0,"B1", 0,15,   0, 0,    0,"AIS","N/A    ","OK ","OK ",    000510.303,    -040.271,    0179.299,    0020.499,    0119.223